Weather Roundup
Issued by NWS

Home | Current Version | Previous Version | Text Only | Print | Product List | Glossary On
Versions: 1 2 3 4 5 6 7 8 9 10 11 12 13 14 15 16 17 18 19 20 21 22 23 24 25 26 27 28 29 30 31 32 33 34 35 36 37 38 39 40 41 42 43 44 45 46 47 48 49 50
000
NZUS93 KARX 230910
HRRWXR

CURRENT HOURLY OBSERVATIONS ACROSS
MUCH OF THE UPPER MISSISSIPPI VALLEY
NATIONAL WEATHER SERVICE LA CROSSE WI
400 AM CDT SUN APR 23 2017


...SOUTHEAST MINNESOTA...


CITY           SKY/WX    TMP DP  RH WIND       PRES   REMARKS
ROCHESTER      CLEAR     46  35  65 SW12      30.10F
ROCHESTER/MAYO FAIR      52  34  50 SW9       30.10S
WINONA         CLEAR     43  36  75 NW5       30.10S
AUSTIN         CLEAR     45  34  65 SW6       30.11S
ALBERT LEA     PTCLDY    46  36  66 SW5       30.11S
DODGE CENTER   CLEAR     45  36  70 SW7       30.10S
PRESTON        CLEAR     45  33  61 SW9       30.11F
OWATONNA       CLEAR     46  36  66 SW6       30.10S
FARIBAULT      CLEAR     48  37  66 CALM      30.10R
$$

...ELSEWHERE IN MINNESOTA...


CITY           SKY/WX    TMP DP  RH WIND       PRES   REMARKS
MINNEAPOLIS    PTCLDY    52  35  52 SW6       30.07S
INTNL FALLS    CLOUDY    31  21  66 N13       30.22R WCI  21
DULUTH         LGT RAIN  40  37  89 N9        30.11R WCI  34
RED WING       CLOUDY    45  37  76 CALM      30.07S
REDWOOD FALLS  PTCLDY    50  36  58 SW15      30.07F
MANKATO        CLEAR     51  36  56 W10       30.10S
WORTHINGTON    CLEAR     47  33  58 SW12      30.12F
FAIRMONT       NOT AVBL
$$

...SOUTHWEST WISCONSIN...


CITY           SKY/WX    TMP DP  RH WIND       PRES   REMARKS
LA CROSSE      CLEAR     47  40  76 S7        30.10S
PRAIRIE DU CHI CLEAR     39  32  77 CALM      30.13F
BOSCOBEL       CLEAR     36  33  89 CALM      30.13S
LONE ROCK      CLEAR     35  32  88 CALM      30.13S
PLATTEVILLE    CLEAR     46  32  56 CALM      30.14R
FORT MC COY    CLEAR     30  29  94 CALM      30.10F
CAMP DOUGLAS   CLEAR     45  30  55 SW9       30.08F
MAUSTON-NEW LI SUNNY     54  28  36 SW8       30.08S
VIROQUA        FAIR      46  29  52 SW5       30.11S
WIS DELLS      CLEAR     43  30  61 SW3       30.10F
$$

...ELSEWHERE IN WISCONSIN...


CITY           SKY/WX    TMP DP  RH WIND       PRES   REMARKS
MILWAUKEE      CLEAR     48  24  39 W3        30.12R
MADISON        CLEAR     39  34  82 SE3       30.12S
GREEN BAY      CLEAR     46  36  68 SW5       30.06S
EAU CLAIRE     CLOUDY    44  38  79 SW6       30.05S
BLACK RVR FLS  FAIR      35  34  98 CALM      30.08S
MEDFORD        CLOUDY    47  34  60 SW5       30.04S
WAUSAU         CLOUDY    47  33  58 S6        30.03S
WIS RAPIDS     CLEAR     39  34  82 SW6       30.08S WCI  35
MARSHFIELD     CLOUDY    45  31  58 SW7       30.05F
RICE LAKE      PTCLDY    50  34  54 NW9       30.05S
$$

...NORTHEAST IOWA...


CITY           SKY/WX    TMP DP  RH WIND       PRES   REMARKS
WATERLOO       CLEAR     37  32  82 CALM      30.14S
DUBUQUE        CLEAR     39  30  70 CALM      30.14R
DECORAH        CLEAR     50  30  46 SW5       30.11F
MASON CITY     CLEAR     47  32  56 W7        30.13F
CHARLES CITY   CLEAR     46  32  57 SW6       30.13F
OELWEIN        CLEAR     45  34  65 SW3       30.14S
$$

...ELSEWHERE IN IOWA...


CITY           SKY/WX    TMP DP  RH WIND       PRES   REMARKS
DES MOINES     CLEAR     47  30  51 CALM      30.17R
IOWA CITY      CLEAR     38  32  79 CALM      30.16S
FORT DODGE     CLEAR     41  30  65 CALM      30.15F
MARSHALLTOWN   CLEAR     41  33  73 W3        30.15R
CEDAR RAPIDS   CLEAR     41  30  65 CALM      30.14S
$$

...NORTHERN ILLINOIS...


CITY           SKY/WX    TMP DP  RH WIND       PRES   REMARKS
CHICAGO-OHARE  CLEAR     41  29  62 CALM      30.12S
CHICAGO-MIDWAY CLEAR     41  32  70 CALM      30.13S
MOLINE         CLEAR     38  34  85 CALM      30.15R
ROCKFORD       CLEAR     38  31  76 CALM      30.16R
PEORIA         CLEAR     40  30  67 N5        30.12S
$$

NOTE: "FAIR" INDICATES FEW OR NO CLOUDS BELOW 12,000 FEET WITH NO
SIGNIFICANT WEATHER AND/OR OBSTRUCTIONS TO VISIBILITY. WIND
SPEEDS ARE IN MILES-PER-HOUR.




USA.gov is the U.S. government's official web portal to all federal, state and local government web resources and services.